Date_Time,Julian_Date,Latitude,Longitude,Instrument_Depth,U,V,Speed,Direction
(yyyy-mm-dd hh:mn:ss UTC),(JD),(+ deg. North),(+ deg. East),(m),(cm/s),(cm/s),(cm/s),(deg True)
1984-07-18 14:00:00 UTC,2445900.083333,25.7150,-84.8850,1100,-2.35,3.48,4.1992,325.9693
1984-07-18 14:30:00 UTC,2445900.104167,25.7150,-84.8850,1100,-2.82,4.37,5.2009,327.1655
1984-07-18 15:00:00 UTC,2445900.125000,25.7150,-84.8850,1100,-2.83,3.94,4.8510,324.3113
1984-07-18 15:30:00 UTC,2445900.145833,25.7150,-84.8850,1100,-2.99,4.81,5.6636,328.1340
1984-07-18 16:00:00 UTC,2445900.166667,25.7150,-84.8850,1100,-4.15,5.53,6.9140,323.1135
1984-07-18 16:30:00 UTC,2445900.187500,25.7150,-84.8850,1100,-3.14,4.76,5.7024,326.5886
1984-07-18 17:00:00 UTC,2445900.208333,25.7150,-84.8850,1100,-2.52,2.43,3.5008,313.9584
1984-07-18 17:30:00 UTC,2445900.229167,25.7150,-84.8850,1100,-3.21,4.35,5.4062,323.5752
1984-07-18 18:00:00 UTC,2445900.250000,25.7150,-84.8850,1100,-3.03,3.31,4.4874,317.5288
1984-07-18 18:30:00 UTC,2445900.270833,25.7150,-84.8850,1100,-2.74,3.80,4.6848,324.2064
1984-07-18 19:00:00 UTC,2445900.291667,25.7150,-84.8850,1100,-3.03,1.79,3.5192,300.5728
1984-07-18 19:30:00 UTC,2445900.312500,25.7150,-84.8850,1100,-3.29,2.88,4.3725,311.1982
1984-07-18 20:00:00 UTC,2445900.333333,25.7150,-84.8850,1100,-2.29,3.06,3.8220,323.1901
1984-07-18 20:30:00 UTC,2445900.354167,25.7150,-84.8850,1100,-2.08,3.13,3.7581,326.3945
1984-07-18 21:00:00 UTC,2445900.375000,25.7150,-84.8850,1100,-2.44,2.18,3.2720,311.7790
1984-07-18 21:30:00 UTC,2445900.395833,25.7150,-84.8850,1100,-2.56,2.11,3.3175,309.4960
1984-07-18 22:00:00 UTC,2445900.416667,25.7150,-84.8850,1100,-3.21,2.08,3.8250,302.9422
1984-07-18 22:30:00 UTC,2445900.437500,25.7150,-84.8850,1100,-4.08,2.18,4.6259,298.1162
1984-07-18 23:00:00 UTC,2445900.458333,25.7150,-84.8850,1100,-2.74,2.04,3.4160,306.6686
1984-07-18 23:30:00 UTC,2445900.479167,25.7150,-84.8850,1100,-2.56,1.99,3.2425,307.8595
1984-07-19 00:00:00 UTC,2445900.500000,25.7150,-84.8850,1100,-1.85,2.23,2.8975,320.3210
1984-07-19 00:30:00 UTC,2445900.520833,25.7150,-84.8850,1100,-1.36,3.52,3.7736,338.8753
1984-07-19 01:00:00 UTC,2445900.541667,25.7150,-84.8850,1100,-1.12,2.38,2.6304,334.7989
1984-07-19 01:30:00 UTC,2445900.562500,25.7150,-84.8850,1100,-1.40,2.93,3.2473,334.4608
1984-07-19 02:00:00 UTC,2445900.583333,25.7150,-84.8850,1100,-0.71,2.68,2.7725,345.1618
1984-07-19 02:30:00 UTC,2445900.604167,25.7150,-84.8850,1100,-0.75,3.65,3.7263,348.3885
1984-07-19 03:00:00 UTC,2445900.625000,25.7150,-84.8850,1100,-0.30,2.17,2.1906,352.1288
1984-07-19 03:30:00 UTC,2445900.645833,25.7150,-84.8850,1100,-0.52,3.23,3.2716,350.8544
1984-07-19 04:00:00 UTC,2445900.666667,25.7150,-84.8850,1100,0.51,2.20,2.2583,13.0517
1984-07-19 04:30:00 UTC,2445900.687500,25.7150,-84.8850,1100,0.32,2.83,2.8480,6.4513
1984-07-19 05:00:00 UTC,2445900.708333,25.7150,-84.8850,1100,0.34,2.14,2.1668,9.0276
1984-07-19 05:30:00 UTC,2445900.729167,25.7150,-84.8850,1100,0.34,3.00,3.0192,6.4659
1984-07-19 06:00:00 UTC,2445900.750000,25.7150,-84.8850,1100,0.27,2.36,2.3754,6.5266
1984-07-19 06:30:00 UTC,2445900.770833,25.7150,-84.8850,1100,0.63,2.91,2.9774,12.2157
1984-07-19 07:00:00 UTC,2445900.791667,25.7150,-84.8850,1100,0.08,1.26,1.2625,3.6330
1984-07-19 07:30:00 UTC,2445900.812500,25.7150,-84.8850,1100,0.52,2.52,2.5731,11.6593
1984-07-19 08:00:00 UTC,2445900.833333,25.7150,-84.8850,1100,-0.16,1.78,1.7872,354.8636
1984-07-19 08:30:00 UTC,2445900.854167,25.7150,-84.8850,1100,-1.31,2.61,2.9203,333.3472
1984-07-19 09:00:00 UTC,2445900.875000,25.7150,-84.8850,1100,-0.69,1.89,2.0120,339.9439
1984-07-19 09:30:00 UTC,2445900.895833,25.7150,-84.8850,1100,1.64,2.05,2.6253,38.6598
1984-07-19 10:00:00 UTC,2445900.916667,25.7150,-84.8850,1100,-0.27,2.00,2.0181,352.3116
1984-07-19 10:30:00 UTC,2445900.937500,25.7150,-84.8850,1100,-0.36,2.15,2.1799,350.4945
1984-07-19 11:00:00 UTC,2445900.958333,25.7150,-84.8850,1100,1.87,0.81,2.0379,66.5799
1984-07-19 11:30:00 UTC,2445900.979167,25.7150,-84.8850,1100,0.79,2.75,2.8612,16.0279
1984-07-19 12:00:00 UTC,2445901.000000,25.7150,-84.8850,1100,-0.10,1.66,1.6630,356.5526
1984-07-19 12:30:00 UTC,2445901.020833,25.7150,-84.8850,1100,-0.81,2.77,2.8860,343.7001
1984-07-19 13:00:00 UTC,2445901.041667,25.7150,-84.8850,1100,-0.38,1.67,1.7127,347.1809
1984-07-19 13:30:00 UTC,2445901.062500,25.7150,-84.8850,1100,-0.91,1.92,2.1247,334.6410
1984-07-19 14:00:00 UTC,2445901.083333,25.7150,-84.8850,1100,-0.46,1.50,1.5689,342.9510
1984-07-19 14:30:00 UTC,2445901.104167,25.7150,-84.8850,1100,-1.00,2.25,2.4622,336.0375
1984-07-19 15:00:00 UTC,2445901.125000,25.7150,-84.8850,1100,-0.95,0.88,1.2950,312.8094
1984-07-19 15:30:00 UTC,2445901.145833,25.7150,-84.8850,1100,-2.20,1.16,2.4871,297.8015
1984-07-19 16:00:00 UTC,2445901.166667,25.7150,-84.8850,1100,-1.41,1.36,1.9590,313.9659
1984-07-19 16:30:00 UTC,2445901.187500,25.7150,-84.8850,1100,-1.63,1.57,2.2631,313.9258
1984-07-19 17:00:00 UTC,2445901.208333,25.7150,-84.8850,1100,-0.90,1.49,1.7407,328.8669
1984-07-19 17:30:00 UTC,2445901.229167,25.7150,-84.8850,1100,-0.84,2.30,2.4486,339.9369
1984-07-19 18:00:00 UTC,2445901.250000,25.7150,-84.8850,1100,-0.21,1.93,1.9414,353.7902
1984-07-19 18:30:00 UTC,2445901.270833,25.7150,-84.8850,1100,-0.04,2.88,2.8803,359.2043
1984-07-19 19:00:00 UTC,2445901.291667,25.7150,-84.8850,1100,0.49,2.60,2.6458,10.6729
1984-07-19 19:30:00 UTC,2445901.312500,25.7150,-84.8850,1100,0.72,2.81,2.9008,14.3716
1984-07-19 20:00:00 UTC,2445901.333333,25.7150,-84.8850,1100,0.45,2.06,2.1086,12.3225
1984-07-19 20:30:00 UTC,2445901.354167,25.7150,-84.8850,1100,0.87,2.77,2.9034,17.4364
1984-07-19 21:00:00 UTC,2445901.375000,25.7150,-84.8850,1100,0.41,2.23,2.2674,10.4179
1984-07-19 21:30:00 UTC,2445901.395833,25.7150,-84.8850,1100,0.19,2.52,2.5272,4.3118
1984-07-19 22:00:00 UTC,2445901.416667,25.7150,-84.8850,1100,-0.07,1.38,1.3818,357.0962
1984-07-19 22:30:00 UTC,2445901.437500,25.7150,-84.8850,1100,0.03,2.21,2.2102,0.7777
1984-07-19 23:00:00 UTC,2445901.458333,25.7150,-84.8850,1100,0.72,2.23,2.3434,17.8937
1984-07-19 23:30:00 UTC,2445901.479167,25.7150,-84.8850,1100,1.20,2.84,3.0831,22.9058
1984-07-20 00:00:00 UTC,2445901.500000,25.7150,-84.8850,1100,-0.52,0.26,0.5814,296.5651
1984-07-20 00:30:00 UTC,2445901.520833,25.7150,-84.8850,1100,-1.37,-1.76,2.2304,217.8975
1984-07-20 01:00:00 UTC,2445901.541667,25.7150,-84.8850,1100,-0.75,-0.30,0.8078,248.1986
1984-07-20 01:30:00 UTC,2445901.562500,25.7150,-84.8850,1100,0.80,-0.21,0.8271,104.7083
1984-07-20 02:00:00 UTC,2445901.583333,25.7150,-84.8850,1100,2.07,-2.04,2.9063,134.5818
1984-07-20 02:30:00 UTC,2445901.604167,25.7150,-84.8850,1100,1.19,-1.74,2.1080,145.6315
1984-07-20 03:00:00 UTC,2445901.625000,25.7150,-84.8850,1100,2.03,-2.31,3.0752,138.6914
1984-07-20 03:30:00 UTC,2445901.645833,25.7150,-84.8850,1100,0.99,-1.77,2.0281,150.7807
1984-07-20 04:00:00 UTC,2445901.666667,25.7150,-84.8850,1100,1.82,0.65,1.9326,70.3462
1984-07-20 04:30:00 UTC,2445901.687500,25.7150,-84.8850,1100,3.94,-0.23,3.9467,93.3409
1984-07-20 05:00:00 UTC,2445901.708333,25.7150,-84.8850,1100,-2.76,0.05,2.7605,271.0378
1984-07-20 05:30:00 UTC,2445901.729167,25.7150,-84.8850,1100,-1.66,-0.11,1.6636,266.2088
1984-07-20 06:00:00 UTC,2445901.750000,25.7150,-84.8850,1100,0.26,-0.10,0.2786,111.0375
1984-07-20 06:30:00 UTC,2445901.770833,25.7150,-84.8850,1100,4.09,0.10,4.0912,88.5994
1984-07-20 07:00:00 UTC,2445901.791667,25.7150,-84.8850,1100,-0.52,0.04,0.5215,274.3987
1984-07-20 07:30:00 UTC,2445901.812500,25.7150,-84.8850,1100,1.78,-0.40,1.8244,102.6651
1984-07-20 08:00:00 UTC,2445901.833333,25.7150,-84.8850,1100,2.70,-0.74,2.7996,105.3269
1984-07-20 08:30:00 UTC,2445901.854167,25.7150,-84.8850,1100,1.50,-0.35,1.5403,103.1340
1984-07-20 09:00:00 UTC,2445901.875000,25.7150,-84.8850,1100,1.44,1.36,1.9807,46.6366
1984-07-20 09:30:00 UTC,2445901.895833,25.7150,-84.8850,1100,4.00,5.48,6.7846,36.1267
1984-07-20 10:00:00 UTC,2445901.916667,25.7150,-84.8850,1100,0.58,1.20,1.3328,25.7960
1984-07-20 10:30:00 UTC,2445901.937500,25.7150,-84.8850,1100,0.62,1.23,1.3774,26.7511
1984-07-20 11:00:00 UTC,2445901.958333,25.7150,-84.8850,1100,2.55,3.60,4.4116,35.3112
1984-07-20 11:30:00 UTC,2445901.979167,25.7150,-84.8850,1100,0.70,-0.19,0.7253,105.1858
1984-07-20 12:00:00 UTC,2445902.000000,25.7150,-84.8850,1100,0.57,0.15,0.5894,75.2564
1984-07-20 12:30:00 UTC,2445902.020833,25.7150,-84.8850,1100,-0.67,-0.18,0.6938,254.9622
1984-07-20 13:00:00 UTC,2445902.041667,25.7150,-84.8850,1100,-0.10,-0.00,0.1000,270.0000
1984-07-20 13:30:00 UTC,2445902.062500,25.7150,-84.8850,1100,0.24,0.02,0.2408,85.2364
1984-07-20 14:00:00 UTC,2445902.083333,25.7150,-84.8850,1100,0.93,1.45,1.7226,32.6753
1984-07-20 14:30:00 UTC,2445902.104167,25.7150,-84.8850,1100,0.48,0.26,0.5459,61.5571
1984-07-20 15:00:00 UTC,2445902.125000,25.7150,-84.8850,1100,0.06,1.93,1.9309,1.7806
1984-07-20 15:30:00 UTC,2445902.145833,25.7150,-84.8850,1100,1.22,5.60,5.7314,12.2903
1984-07-20 16:00:00 UTC,2445902.166667,25.7150,-84.8850,1100,1.73,6.48,6.7070,14.9479
1984-07-20 16:30:00 UTC,2445902.187500,25.7150,-84.8850,1100,1.00,4.24,4.3563,13.2706
1984-07-20 17:00:00 UTC,2445902.208333,25.7150,-84.8850,1100,-0.14,0.33,0.3585,337.0113
1984-07-20 17:30:00 UTC,2445902.229167,25.7150,-84.8850,1100,3.24,3.59,4.8359,42.0665
1984-07-20 18:00:00 UTC,2445902.250000,25.7150,-84.8850,1100,2.82,2.74,3.9319,45.8243
1984-07-20 18:30:00 UTC,2445902.270833,25.7150,-84.8850,1100,0.14,0.35,0.3770,21.8014
1984-07-20 19:00:00 UTC,2445902.291667,25.7150,-84.8850,1100,1.60,2.68,3.1213,30.8378
1984-07-20 19:30:00 UTC,2445902.312500,25.7150,-84.8850,1100,3.96,5.28,6.6000,36.8699
1984-07-20 20:00:00 UTC,2445902.333333,25.7150,-84.8850,1100,5.31,5.04,7.3210,46.4943
1984-07-20 20:30:00 UTC,2445902.354167,25.7150,-84.8850,1100,1.37,1.07,1.7383,52.0094
1984-07-20 21:00:00 UTC,2445902.375000,25.7150,-84.8850,1100,5.35,3.69,6.4991,55.4052
1984-07-20 21:30:00 UTC,2445902.395833,25.7150,-84.8850,1100,8.91,4.94,10.1878,60.9946
1984-07-20 22:00:00 UTC,2445902.416667,25.7150,-84.8850,1100,3.04,1.43,3.3595,64.8080
1984-07-20 22:30:00 UTC,2445902.437500,25.7150,-84.8850,1100,0.79,1.47,1.6688,28.2542
1984-07-20 23:00:00 UTC,2445902.458333,25.7150,-84.8850,1100,4.39,3.74,5.7671,49.5711
1984-07-20 23:30:00 UTC,2445902.479167,25.7150,-84.8850,1100,4.92,3.58,6.0846,53.9588
1984-07-21 00:00:00 UTC,2445902.500000,25.7150,-84.8850,1100,3.73,3.98,5.4547,43.1428
1984-07-21 00:30:00 UTC,2445902.520833,25.7150,-84.8850,1100,4.56,4.46,6.3785,45.6352
1984-07-21 01:00:00 UTC,2445902.541667,25.7150,-84.8850,1100,6.04,4.11,7.3057,55.7661
1984-07-21 01:30:00 UTC,2445902.562500,25.7150,-84.8850,1100,5.34,4.29,6.8498,51.2226
1984-07-21 02:00:00 UTC,2445902.583333,25.7150,-84.8850,1100,1.51,1.58,2.1855,43.7023
1984-07-21 02:30:00 UTC,2445902.604167,25.7150,-84.8850,1100,2.93,2.45,3.8193,50.0984
1984-07-21 03:00:00 UTC,2445902.625000,25.7150,-84.8850,1100,2.82,1.86,3.3782,56.5922
1984-07-21 03:30:00 UTC,2445902.645833,25.7150,-84.8850,1100,3.53,1.31,3.7652,69.6399
1984-07-21 04:00:00 UTC,2445902.666667,25.7150,-84.8850,1100,1.47,0.42,1.5288,74.0546
1984-07-21 04:30:00 UTC,2445902.687500,25.7150,-84.8850,1100,8.57,3.05,9.0966,70.4097
1984-07-21 05:00:00 UTC,2445902.708333,25.7150,-84.8850,1100,8.17,2.62,8.5798,72.2197
1984-07-21 05:30:00 UTC,2445902.729167,25.7150,-84.8850,1100,7.32,1.31,7.4363,79.8537
1984-07-21 06:00:00 UTC,2445902.750000,25.7150,-84.8850,1100,7.98,1.33,8.0901,80.5377
1984-07-21 06:30:00 UTC,2445902.770833,25.7150,-84.8850,1100,5.33,1.58,5.5593,73.4883
1984-07-21 07:00:00 UTC,2445902.791667,25.7150,-84.8850,1100,4.18,1.51,4.4444,70.1380
1984-07-21 07:30:00 UTC,2445902.812500,25.7150,-84.8850,1100,1.74,0.89,1.9544,62.9105
1984-07-21 08:00:00 UTC,2445902.833333,25.7150,-84.8850,1100,1.53,1.40,2.0739,47.5405
1984-07-21 08:30:00 UTC,2445902.854167,25.7150,-84.8850,1100,2.85,2.74,3.9535,46.1273
1984-07-21 09:00:00 UTC,2445902.875000,25.7150,-84.8850,1100,-0.92,-1.05,1.3960,221.2245
1984-07-21 09:30:00 UTC,2445902.895833,25.7150,-84.8850,1100,2.30,2.65,3.5089,40.9555
1984-07-21 10:00:00 UTC,2445902.916667,25.7150,-84.8850,1100,2.26,3.48,4.1495,33.0007
1984-07-21 10:30:00 UTC,2445902.937500,25.7150,-84.8850,1100,0.59,1.93,2.0182,16.9984
1984-07-21 11:00:00 UTC,2445902.958333,25.7150,-84.8850,1100,0.78,3.73,3.8107,11.8112
1984-07-21 11:30:00 UTC,2445902.979167,25.7150,-84.8850,1100,0.47,2.40,2.4456,11.0802
1984-07-21 12:00:00 UTC,2445903.000000,25.7150,-84.8850,1100,0.11,0.08,0.1360,53.9726
1984-07-21 12:30:00 UTC,2445903.020833,25.7150,-84.8850,1100,0.94,5.48,5.5600,9.7334
1984-07-21 13:00:00 UTC,2445903.041667,25.7150,-84.8850,1100,-0.60,-1.17,1.3149,207.1497
1984-07-21 13:30:00 UTC,2445903.062500,25.7150,-84.8850,1100,0.29,3.10,3.1135,5.3444
1984-07-21 14:00:00 UTC,2445903.083333,25.7150,-84.8850,1100,0.66,4.69,4.7362,8.0103
1984-07-21 14:30:00 UTC,2445903.104167,25.7150,-84.8850,1100,0.03,1.59,1.5903,1.0809
1984-07-21 15:00:00 UTC,2445903.125000,25.7150,-84.8850,1100,0.37,5.50,5.5124,3.8486
1984-07-21 15:30:00 UTC,2445903.145833,25.7150,-84.8850,1100,0.02,3.25,3.2501,0.3526
1984-07-21 16:00:00 UTC,2445903.166667,25.7150,-84.8850,1100,0.25,8.03,8.0339,1.7832
1984-07-21 16:30:00 UTC,2445903.187500,25.7150,-84.8850,1100,0.15,0.23,0.2746,33.1113
1984-07-21 17:00:00 UTC,2445903.208333,25.7150,-84.8850,1100,0.05,1.57,1.5708,1.8241
1984-07-21 17:30:00 UTC,2445903.229167,25.7150,-84.8850,1100,-0.46,-2.70,2.7389,189.6687
1984-07-21 18:00:00 UTC,2445903.250000,25.7150,-84.8850,1100,0.44,2.18,2.2240,11.4110
1984-07-21 18:30:00 UTC,2445903.270833,25.7150,-84.8850,1100,1.25,8.51,8.6013,8.3562
1984-07-21 19:00:00 UTC,2445903.291667,25.7150,-84.8850,1100,0.25,1.77,1.7876,8.0394
1984-07-21 19:30:00 UTC,2445903.312500,25.7150,-84.8850,1100,-0.11,0.02,0.1118,280.3049
1984-07-21 20:00:00 UTC,2445903.333333,25.7150,-84.8850,1100,0.83,6.68,6.7314,7.0828
1984-07-21 20:30:00 UTC,2445903.354167,25.7150,-84.8850,1100,0.25,1.80,1.8173,7.9072
1984-07-21 21:00:00 UTC,2445903.375000,25.7150,-84.8850,1100,1.17,6.82,6.9196,9.7346
1984-07-21 21:30:00 UTC,2445903.395833,25.7150,-84.8850,1100,2.11,10.27,10.4845,11.6100
1984-07-21 22:00:00 UTC,2445903.416667,25.7150,-84.8850,1100,2.78,9.20,9.6108,16.8134
1984-07-21 22:30:00 UTC,2445903.437500,25.7150,-84.8850,1100,3.79,10.99,11.6252,19.0272
1984-07-21 23:00:00 UTC,2445903.458333,25.7150,-84.8850,1100,2.88,8.22,8.7099,19.3087
1984-07-21 23:30:00 UTC,2445903.479167,25.7150,-84.8850,1100,3.22,10.76,11.2315,16.6602
1984-07-22 00:00:00 UTC,2445903.500000,25.7150,-84.8850,1100,2.90,6.83,7.4202,23.0059
1984-07-22 00:30:00 UTC,2445903.520833,25.7150,-84.8850,1100,7.18,12.08,14.0527,30.7260
1984-07-22 01:00:00 UTC,2445903.541667,25.7150,-84.8850,1100,5.11,11.39,12.4838,24.1629
1984-07-22 01:30:00 UTC,2445903.562500,25.7150,-84.8850,1100,3.54,8.78,9.4668,21.9588
1984-07-22 02:00:00 UTC,2445903.583333,25.7150,-84.8850,1100,4.79,8.60,9.8440,29.1168
1984-07-22 02:30:00 UTC,2445903.604167,25.7150,-84.8850,1100,6.20,8.94,10.8795,34.7418
1984-07-22 03:00:00 UTC,2445903.625000,25.7150,-84.8850,1100,7.19,10.50,12.7258,34.4019
1984-07-22 03:30:00 UTC,2445903.645833,25.7150,-84.8850,1100,4.77,5.56,7.3257,40.6267
1984-07-22 04:00:00 UTC,2445903.666667,25.7150,-84.8850,1100,0.74,1.06,1.2927,34.9194
1984-07-22 04:30:00 UTC,2445903.687500,25.7150,-84.8850,1100,6.53,9.81,11.7846,33.6496
1984-07-22 05:00:00 UTC,2445903.708333,25.7150,-84.8850,1100,6.63,8.55,10.8194,37.7914
1984-07-22 05:30:00 UTC,2445903.729167,25.7150,-84.8850,1100,2.52,2.97,3.8950,40.3141
1984-07-22 06:00:00 UTC,2445903.750000,25.7150,-84.8850,1100,4.16,4.88,6.4125,40.4462
1984-07-22 06:30:00 UTC,2445903.770833,25.7150,-84.8850,1100,3.00,4.43,5.3502,34.1059
1984-07-22 07:00:00 UTC,2445903.791667,25.7150,-84.8850,1100,-0.30,-0.24,0.3842,231.3402
1984-07-22 07:30:00 UTC,2445903.812500,25.7150,-84.8850,1100,3.58,3.62,5.0912,44.6817
1984-07-22 08:00:00 UTC,2445903.833333,25.7150,-84.8850,1100,3.11,2.07,3.7359,56.3525
1984-07-22 08:30:00 UTC,2445903.854167,25.7150,-84.8850,1100,2.59,2.86,3.8585,42.1638
1984-07-22 09:00:00 UTC,2445903.875000,25.7150,-84.8850,1100,3.16,3.42,4.6564,42.7372
1984-07-22 09:30:00 UTC,2445903.895833,25.7150,-84.8850,1100,3.96,4.30,5.8456,42.6429
1984-07-22 10:00:00 UTC,2445903.916667,25.7150,-84.8850,1100,6.84,11.24,13.1576,31.3222
1984-07-22 10:30:00 UTC,2445903.937500,25.7150,-84.8850,1100,1.46,2.92,3.2647,26.5651
1984-07-22 11:00:00 UTC,2445903.958333,25.7150,-84.8850,1100,0.75,1.65,1.8125,24.4440
1984-07-22 11:30:00 UTC,2445903.979167,25.7150,-84.8850,1100,1.95,3.84,4.3068,26.9220
1984-07-22 12:00:00 UTC,2445904.000000,25.7150,-84.8850,1100,2.17,6.78,7.1188,17.7477
1984-07-22 12:30:00 UTC,2445904.020833,25.7150,-84.8850,1100,0.14,0.47,0.4904,16.5873
1984-07-22 13:00:00 UTC,2445904.041667,25.7150,-84.8850,1100,0.97,2.94,3.0959,18.2594
1984-07-22 13:30:00 UTC,2445904.062500,25.7150,-84.8850,1100,1.15,3.49,3.6746,18.2377
1984-07-22 14:00:00 UTC,2445904.083333,25.7150,-84.8850,1100,1.72,9.03,9.1923,10.7843
1984-07-22 14:30:00 UTC,2445904.104167,25.7150,-84.8850,1100,0.12,0.99,0.9972,6.9112
1984-07-22 15:00:00 UTC,2445904.125000,25.7150,-84.8850,1100,0.04,-1.14,1.1407,177.9904
1984-07-22 15:30:00 UTC,2445904.145833,25.7150,-84.8850,1100,0.46,2.03,2.0815,12.7677
1984-07-22 16:00:00 UTC,2445904.166667,25.7150,-84.8850,1100,0.15,7.13,7.1316,1.2052
1984-07-22 16:30:00 UTC,2445904.187500,25.7150,-84.8850,1100,-0.41,3.00,3.0279,352.2178
1984-07-22 17:00:00 UTC,2445904.208333,25.7150,-84.8850,1100,1.72,6.42,6.6464,14.9981
1984-07-22 17:30:00 UTC,2445904.229167,25.7150,-84.8850,1100,0.24,1.28,1.3023,10.6197
1984-07-22 18:00:00 UTC,2445904.250000,25.7150,-84.8850,1100,0.23,4.34,4.3461,3.0336
1984-07-22 18:30:00 UTC,2445904.270833,25.7150,-84.8850,1100,0.60,3.09,3.1477,10.9887
1984-07-22 19:00:00 UTC,2445904.291667,25.7150,-84.8850,1100,0.33,2.68,2.7002,7.0197
1984-07-22 19:30:00 UTC,2445904.312500,25.7150,-84.8850,1100,0.62,1.90,1.9986,18.0723
1984-07-22 20:00:00 UTC,2445904.333333,25.7150,-84.8850,1100,0.67,3.44,3.5046,11.0214
1984-07-22 20:30:00 UTC,2445904.354167,25.7150,-84.8850,1100,0.32,1.67,1.7004,10.8473
1984-07-22 21:00:00 UTC,2445904.375000,25.7150,-84.8850,1100,2.41,7.26,7.6496,18.3639
1984-07-22 21:30:00 UTC,2445904.395833,25.7150,-84.8850,1100,2.32,4.98,5.4939,24.9791
1984-07-22 22:00:00 UTC,2445904.416667,25.7150,-84.8850,1100,0.15,0.26,0.3002,29.9816
1984-07-22 22:30:00 UTC,2445904.437500,25.7150,-84.8850,1100,2.25,6.47,6.8501,19.1756
1984-07-22 23:00:00 UTC,2445904.458333,25.7150,-84.8850,1100,0.86,3.60,3.7013,13.4355
1984-07-22 23:30:00 UTC,2445904.479167,25.7150,-84.8850,1100,-0.32,-1.00,1.0500,197.7447
1984-07-23 00:00:00 UTC,2445904.500000,25.7150,-84.8850,1100,1.07,4.01,4.1503,14.9403
1984-07-23 00:30:00 UTC,2445904.520833,25.7150,-84.8850,1100,-0.40,-1.29,1.3506,197.2275
1984-07-23 01:00:00 UTC,2445904.541667,25.7150,-84.8850,1100,-0.25,-0.81,0.8477,197.1524
1984-07-23 01:30:00 UTC,2445904.562500,25.7150,-84.8850,1100,1.07,4.01,4.1503,14.9403
1984-07-23 02:00:00 UTC,2445904.583333,25.7150,-84.8850,1100,2.03,7.58,7.8471,14.9926
1984-07-23 02:30:00 UTC,2445904.604167,25.7150,-84.8850,1100,0.97,1.75,2.0008,28.9990
1984-07-23 03:00:00 UTC,2445904.625000,25.7150,-84.8850,1100,1.46,3.56,3.8478,22.2991
1984-07-23 03:30:00 UTC,2445904.645833,25.7150,-84.8850,1100,3.78,4.66,6.0003,39.0475
1984-07-23 04:00:00 UTC,2445904.666667,25.7150,-84.8850,1100,2.73,6.60,7.1423,22.4718
1984-07-23 04:30:00 UTC,2445904.687500,25.7150,-84.8850,1100,1.82,4.79,5.1241,20.8047
1984-07-23 05:00:00 UTC,2445904.708333,25.7150,-84.8850,1100,2.95,7.58,8.1338,21.2651
1984-07-23 05:30:00 UTC,2445904.729167,25.7150,-84.8850,1100,3.20,7.09,7.7787,24.2916
1984-07-23 06:00:00 UTC,2445904.750000,25.7150,-84.8850,1100,1.07,1.72,2.0257,31.8855
1984-07-23 06:30:00 UTC,2445904.770833,25.7150,-84.8850,1100,3.04,5.68,6.4424,28.1562
1984-07-23 07:00:00 UTC,2445904.791667,25.7150,-84.8850,1100,2.71,5.92,6.5108,24.5969
1984-07-23 07:30:00 UTC,2445904.812500,25.7150,-84.8850,1100,1.10,1.95,2.2389,29.4275
1984-07-23 08:00:00 UTC,2445904.833333,25.7150,-84.8850,1100,5.65,8.23,9.9828,34.4701
1984-07-23 08:30:00 UTC,2445904.854167,25.7150,-84.8850,1100,1.63,2.08,2.6426,38.0842
1984-07-23 09:00:00 UTC,2445904.875000,25.7150,-84.8850,1100,-0.74,-1.29,1.4872,209.8405
1984-07-23 09:30:00 UTC,2445904.895833,25.7150,-84.8850,1100,0.50,1.13,1.2357,23.8683
1984-07-23 10:00:00 UTC,2445904.916667,25.7150,-84.8850,1100,0.87,1.87,2.0625,24.9498
1984-07-23 10:30:00 UTC,2445904.937500,25.7150,-84.8850,1100,1.32,2.34,2.6866,29.4275
1984-07-23 11:00:00 UTC,2445904.958333,25.7150,-84.8850,1100,1.50,4.44,4.6865,18.6669
1984-07-23 11:30:00 UTC,2445904.979167,25.7150,-84.8850,1100,0.54,4.14,4.1751,7.4314
1984-07-23 12:00:00 UTC,2445905.000000,25.7150,-84.8850,1100,0.09,1.35,1.3530,3.8141
1984-07-23 12:30:00 UTC,2445905.020833,25.7150,-84.8850,1100,0.70,4.86,4.9102,8.1961
1984-07-23 13:00:00 UTC,2445905.041667,25.7150,-84.8850,1100,0.02,0.29,0.2907,3.9452
1984-07-23 13:30:00 UTC,2445905.062500,25.7150,-84.8850,1100,-0.87,0.96,1.2956,317.8156
1984-07-23 14:00:00 UTC,2445905.083333,25.7150,-84.8850,1100,-2.30,1.87,2.9643,309.1126
1984-07-23 14:30:00 UTC,2445905.104167,25.7150,-84.8850,1100,1.54,-1.10,1.8925,125.5377
1984-07-23 15:00:00 UTC,2445905.125000,25.7150,-84.8850,1100,1.59,-0.23,1.6065,98.2310
1984-07-23 15:30:00 UTC,2445905.145833,25.7150,-84.8850,1100,-9.21,1.07,9.2719,276.6268
1984-07-23 16:00:00 UTC,2445905.166667,25.7150,-84.8850,1100,-1.16,0.12,1.1662,275.9062
1984-07-23 16:30:00 UTC,2445905.187500,25.7150,-84.8850,1100,0.22,0.07,0.2309,72.3499
1984-07-23 17:00:00 UTC,2445905.208333,25.7150,-84.8850,1100,-7.10,0.66,7.1306,275.3108
1984-07-23 17:30:00 UTC,2445905.229167,25.7150,-84.8850,1100,-3.77,0.09,3.7711,271.3676
1984-07-23 18:00:00 UTC,2445905.250000,25.7150,-84.8850,1100,-4.04,-0.11,4.0415,268.4404
1984-07-23 18:30:00 UTC,2445905.270833,25.7150,-84.8850,1100,-3.83,-0.26,3.8388,266.1164
1984-07-23 19:00:00 UTC,2445905.291667,25.7150,-84.8850,1100,-2.92,0.13,2.9229,272.5492
1984-07-23 19:30:00 UTC,2445905.312500,25.7150,-84.8850,1100,-5.08,0.20,5.0839,272.2546
1984-07-23 20:00:00 UTC,2445905.333333,25.7150,-84.8850,1100,-4.72,0.19,4.7238,272.3052
1984-07-23 20:30:00 UTC,2445905.354167,25.7150,-84.8850,1100,-3.18,0.75,3.2672,283.2707
1984-07-23 21:00:00 UTC,2445905.375000,25.7150,-84.8850,1100,-4.56,1.02,4.6727,282.6086
1984-07-23 21:30:00 UTC,2445905.395833,25.7150,-84.8850,1100,-4.13,2.12,4.6423,297.1722
1984-07-23 22:00:00 UTC,2445905.416667,25.7150,-84.8850,1100,-4.44,2.79,5.2438,302.1444
1984-07-23 22:30:00 UTC,2445905.437500,25.7150,-84.8850,1100,-2.83,1.72,3.3117,301.2901
1984-07-23 23:00:00 UTC,2445905.458333,25.7150,-84.8850,1100,-4.12,2.48,4.8088,301.0455
1984-07-23 23:30:00 UTC,2445905.479167,25.7150,-84.8850,1100,-3.42,2.59,4.2900,307.1370
1984-07-24 00:00:00 UTC,2445905.500000,25.7150,-84.8850,1100,-3.27,2.55,4.1467,307.9477
1984-07-24 00:30:00 UTC,2445905.520833,25.7150,-84.8850,1100,-0.55,1.01,1.1500,331.4293
1984-07-24 01:00:00 UTC,2445905.541667,25.7150,-84.8850,1100,-1.69,3.29,3.6987,332.8114
1984-07-24 01:30:00 UTC,2445905.562500,25.7150,-84.8850,1100,-1.14,2.76,2.9862,337.5573
1984-07-24 02:00:00 UTC,2445905.583333,25.7150,-84.8850,1100,-3.95,10.94,11.6313,340.1474
1984-07-24 02:30:00 UTC,2445905.604167,25.7150,-84.8850,1100,-2.72,13.82,14.0851,348.8656
1984-07-24 03:00:00 UTC,2445905.625000,25.7150,-84.8850,1100,-1.48,11.58,11.6742,352.7167
1984-07-24 03:30:00 UTC,2445905.645833,25.7150,-84.8850,1100,-1.56,5.92,6.1221,345.2374
1984-07-24 04:00:00 UTC,2445905.666667,25.7150,-84.8850,1100,-0.58,2.78,2.8399,348.2152
1984-07-24 04:30:00 UTC,2445905.687500,25.7150,-84.8850,1100,-0.50,13.11,13.1195,357.8159
1984-07-24 05:00:00 UTC,2445905.708333,25.7150,-84.8850,1100,2.05,9.48,9.6991,12.2020
1984-07-24 05:30:00 UTC,2445905.729167,25.7150,-84.8850,1100,-0.05,-0.62,0.6220,184.6107
1984-07-24 06:00:00 UTC,2445905.750000,25.7150,-84.8850,1100,3.58,13.16,13.6383,15.2183
1984-07-24 06:30:00 UTC,2445905.770833,25.7150,-84.8850,1100,2.14,6.98,7.3007,17.0450